カタログに戻る

SL-16 DEB

運用中LEO
NORAD 23090·DEBRIS·🇷🇺 Russia

打ち上げ Apr 23, 1994 から Baikonur Cosmodrome

Loading…

次のパス (今後24時間)

TLE

最新Source: Space-Track

元期: Sep 14, 2026, 13:41 UTC

1 23090U 94023D   26257.57074862  .00000045  00000-0  78713-4 0  9992
2 23090  71.0305 220.5424 0189044 115.2319 246.8512 13.75689258625565

AllMySatでSL-16 DEBをリアルタイム追跡

Download on the App Store